Regional Weather Roundup
Issued by NWS Sterling, VA

Home | Current Version | Previous Version | Text Only | Print | Product List | Glossary Off
Versions: 1 2 3 4 5 6 7 8 9 10 11 12 13 14 15 16 17 18 19 20 21 22 23 24 25 26 27

000
ASUS41 KLWX 280910
RWRLWX

REGIONAL WEATHER ROUNDUP
NATIONAL WEATHER SERVICE BALTIMORE MD/WASHINGTON DC
500 AM EDT SUN AUG 28 2016

Note: "FAIR" indicates few or no clouds below 12,000 feet
with no significant weather and/or obstructions to visibility.
 TC=TEMPERATURE CELSIUS

 * =Non NWS site. Station does not report precipitation (e.g. rain,
    snow, etc.), thunder, or fog.

DCZ001-MDZ009-015-VAZ040>042-051-053>054-281000-
WASHINGTON METRO

CITY           SKY/WX    TMP DP  RH WIND       PRES   REMARKS
WASHINGTON NAT PTCLDY    75  71  87 NE3       30.21R
DULLES         PTCLDY    67  63  87 CALM      30.23R
ANDREWS AFB    CLEAR     68  68 100 NW2       30.21R FOG
FT BELVOIR     PTCLDY    68  66  95 NW2       30.21R
QUANTICO       MOCLDY    72  69  90 NW7       30.21
COLLEGE PARK*  PTCLDY    68  66  94 CALM      30.21R
LEESBURG*      CLEAR     68  68 100 CALM      30.24R
MANASSAS*      CLEAR     66  66 100 NW3       30.22R
GAITHERSBURG*  CLOUDY    70  64  83 CALM      30.26S

$$

MDZ006>007-011-014-281000-
BALTIMORE METRO

CITY           SKY/WX    TMP DP  RH WIND       PRES   REMARKS
BWI AIRPORT    PTCLDY    70  67  90 CALM      30.21R
MD SCIENCE CTR   N/A     76  68  76 MISG      30.22R
MARTIN STATE   CLEAR     70  70 100 CALM      30.23R
ANNAPOLIS      PTCLDY    77  73  87 SE9       30.20R
FORT MEADE*    CLEAR    N/A N/A N/A CALM      30.24R

$$

MDZ012-015-019>023-281000-
MARYLAND EASTERN SHORE

CITY           SKY/WX    TMP DP  RH WIND       PRES   REMARKS
OCEAN CITY     CLEAR     75  71  87 E3        30.18R
SALISBURY      CLEAR     69  68  96 CALM      30.18R
BAY BRIDGE AP* CLEAR     72  70  94 E3        30.20R
CAMBRIDGE*     CLOUDY    66  64  94 CALM      30.18S VSB 1
EASTON*        CLEAR     71  71 100 CALM      30.23S

$$

MDZ017>025-281000-
SOUTHERN MARYLAND

CITY           SKY/WX    TMP DP  RH WIND       PRES   REMARKS
PATUXENT RIVER PTCLDY    75  71  87 E7        30.18R
ST INIGOES     CLEAR     74  72  93 NE3       30.18R
LEONARDTOWN*   PTCLDY    72  70  94 CALM      30.20R

$$

MDZ003>005-281000-
NORTH CENTRAL MARYLAND

CITY           SKY/WX    TMP DP  RH WIND       PRES   REMARKS
FREDERICK*     CLEAR     66  66 100 CALM      30.25R
HAGERSTOWN APT CLEAR     73  64  73 CALM      30.23R

$$

MDZ501>502-281000-
WESTERN MARYLAND

CITY           SKY/WX    TMP DP  RH WIND       PRES   REMARKS
OAKLAND*       CLEAR     64  64 100 SE7       30.30R
CUMBERLAND*    CLEAR     70  70 100 CALM      30.25R

$$

VAZ025>031-281000-
SHENANDOAH VALLEY

CITY           SKY/WX    TMP DP  RH WIND       PRES   REMARKS
WINCHESTER*    CLEAR     66  64  94 CALM      30.22R
FRONT ROYAL*   FAIR      66  66 100 CALM      30.21S
LURAY*         PTSUNNY  N/A N/A N/A CALM      30.23S
NEW MARKET*    FAIR     N/A N/A N/A CALM      30.22S
STAUNTON*      CLEAR     65  65  99 CALM      30.26S FOG
WAYNESBORO*    FAIR      65  63  91 CALM      30.25S

$$

WVZ021-048>050-054>055-281000-
EASTERN WEST VIRGINIA PANHANDLE

CITY           SKY/WX    TMP DP  RH WIND       PRES   REMARKS
MARTINSBURG    CLEAR     67  65  93 CALM      30.22R
PETERSBURG*    CLEAR     68  68  99 CALM      30.22R FOG

$$

VAZ036>039-050-281000-
CENTRAL FOOTHILLS

CITY           SKY/WX    TMP DP  RH WIND       PRES   REMARKS
CHARLOTTESVILL CLEAR     68  66  93 CALM      30.23R
CULPEPER*      CLEAR     68  68 100 CALM      30.23R
ORANGE*          N/A     66  66 100 CALM      30.24R
GORDONSVILLE*  FAIR      64  64 100 CALM      30.21S FOG
WARRENTON*     FOG       63  59  86 CALM      30.22R VSB 1/4

$$

VAZ055>057-281000-
NORTH AND CENTRAL PIEDMONT

CITY           SKY/WX    TMP DP  RH WIND       PRES   REMARKS
FREDERICKSBRG* PTCLDY    68  68 100 CALM      30.19S
STAFFORD*      PTCLDY    65  64  97 NW3       30.25R FOG

$$

NCZ024-NYZ072-PAZ021-071-VAZ022-071-281000-
OTHER REGIONAL OBSERVATIONS

CITY           SKY/WX    TMP DP  RH WIND       PRES   REMARKS
NEW YORK CITY  CLEAR     73  67  81 CALM      30.25S
PHILADELPHIA   PTCLDY    71  68  90 CALM      30.23R
PITTSBURGH     PTCLDY    71  67  87 CALM      30.18R
ROANOKE        CLEAR     74  66  76 CALM      30.24S
RICHMOND       CLEAR     68  66  93 N6        30.18R
RALEIGH        PTCLDY    72  70  93 NE7       30.16S

$$

ANZ530>537-281000-
MARINE OBSERVATIONS

STATION/POSITION TIME  TEMP    WIND        PRES
                       AIR SEA DIR/SP/G
                 (UTC) (F)     (DEG/KT/KT) (MB)
THOMAS PT LIGHT  0900   75 82  120/  8/  9 1024.1R
BALT KEY BRIDGE  0842   76     100/  8/ 10 1022.8R
COVE POINT       0848   75     140/  8/ 11 1022.7R
LEWISETTA        0848   79 84  110/ 10/ 12 1021.3R
SOLOMONS ISLAND  0842   77 85  100/  9/ 11   N/A
PINEY POINT      0848           70/  4/  6   N/A

$$





USA.gov is the U.S. government's official web portal to all federal, state and local government web resources and services.